FW5863 Weather Reports


Display with metric or nautical units.
time (UTC)temp
F
wind
direction
speed
MPH
gust
MPH
rain 1hr
in
rain 24hr
in
rain mn
in
humidity
%
barometer
mb
20260505014001 62 50 2.0 5.0 0.00 0.00 0.00 53 1009.9
20260505013501 62 50 2.0 5.0 0.00 0.00 0.00 53 1009.9
20260505013007 63 50 2.0 5.0 0.00 0.00 0.00 53 1009.9
20260505012501 63 50 3.0 5.0 0.00 0.00 0.00 53 1009.8
20260505012001 63 50 2.0 4.0 0.00 0.00 0.00 52 1009.7
20260505011509 63 50 2.0 4.0 0.00 0.00 0.00 52 1009.7
20260505011003 63 50 2.0 4.0 0.00 0.00 0.00 52 1009.6
20260505010502 63 50 2.0 4.0 0.00 0.00 0.00 51 1009.5
20260505010007 63 50 2.0 4.0 0.00 0.00 0.00 51 1009.6
20260505005500 64 50 3.0 5.0 0.00 0.00 0.00 51 1009.6
20260505005001 64 50 3.0 6.0 0.00 0.00 0.00 51 1009.5
20260505004504 64 50 3.0 8.0 0.00 0.00 0.00 50 1009.5
20260505004001 64 50 4.0 8.0 0.00 0.00 0.00 50 1009.4
20260505003501 64 50 4.0 8.0 0.00 0.00 0.00 50 1009.4
20260505002501 65 50 4.0 9.0 0.00 0.00 0.00 49 1009.3
20260505002000 65 50 6.0 12.0 0.00 0.00 0.00 49 1009.3
20260505001503 65 50 6.0 12.0 0.00 0.00 0.00 48 1009.2
20260505001001 65 50 5.0 10.0 0.00 0.00 0.00 48 1009.1
20260505000501 66 50 5.0 10.0 0.00 0.00 0.00 48 1009.2
20260505000007 66 50 5.0 12.0 0.00 0.00 0.00 47 1009.1
20260504235501 66 50 5.0 12.0 0.00 0.00 0.00 47 1009.1
20260504235001 67 50 6.0 15.0 0.00 0.00 0.00 46 1009.0
20260504234502 67 50 8.0 15.0 0.00 0.00 0.00 46 1008.9
20260504234001 67 50 8.0 16.0 0.00 0.00 0.00 46 1008.9
20260504233501 68 50 7.0 16.0 0.00 0.00 0.00 46 1008.9
20260504233003 68 50 7.0 17.0 0.00 0.00 0.00 45 1008.8
20260504232001 68 50 9.0 17.0 0.00 0.00 0.00 44 1008.7
20260504231501 69 50 8.0 17.0 0.00 0.00 0.00 45 1008.7
20260504231001 69 50 8.0 17.0 0.00 0.00 0.00 44 1008.6
20260504230501 69 50 9.0 19.0 0.00 0.00 0.00 45 1008.6
20260504230003 70 50 9.0 19.0 0.00 0.00 0.00 43 1008.5
20260504225501 70 50 6.0 14.0 0.00 0.00 0.00 42 1008.5
20260504224501 70 50 8.0 15.0 0.00 0.00 0.00 42 1008.3
20260504224000 70 184 8.0 15.0 0.00 0.00 0.00 42 1008.4
20260504223001 71 205 7.0 14.0 0.00 0.00 0.00 43 1008.3
20260504222501 71 250 7.0 16.0 0.00 0.00 0.00 42 1008.4
20260504222001 71 220 8.0 16.0 0.00 0.00 0.00 43 1008.5
20260504221501 71 226 8.0 12.0 0.00 0.00 0.00 42 1008.5
20260504221000 71 238 8.0 15.0 0.00 0.00 0.00 42 1008.6
20260504220501 71 257 9.0 15.0 0.00 0.00 0.00 41 1008.6
20260504220001 71 198 9.0 18.0 0.00 0.00 0.00 40 1008.6
20260504215000 71 244 9.0 18.0 0.00 0.00 0.00 41 1008.6
20260504214501 71 245 7.0 17.0 0.00 0.00 0.00 41 1008.7
20260504214001 71 184 8.0 16.0 0.00 0.00 0.00 42 1008.6
20260504213501 71 202 8.0 15.0 0.00 0.00 0.00 41 1008.6
20260504212500 71 230 9.0 16.0 0.00 0.00 0.00 43 1008.8
20260504212001 71 166 9.0 15.0 0.00 0.00 0.00 42 1008.7
20260504211501 71 202 10.0 16.0 0.00 0.00 0.00 41 1008.7
20260504210501 72 238 7.0 16.0 0.00 0.00 0.00 40 1008.7
20260504205500 71 50 10.0 16.0 0.00 0.00 0.00 42 1008.8
20260504205001 71 50 9.0 16.0 0.00 0.00 0.00 41 1008.9
20260504204000 71 50 11.0 18.0 0.00 0.00 0.00 43 1009.0
20260504203500 71 50 10.0 18.0 0.00 0.00 0.00 42 1009.1
20260504203001 71 50 9.0 18.0 0.00 0.00 0.00 44 1009.1
20260504202500 70 50 10.0 21.0 0.00 0.00 0.00 42 1009.1
20260504202000 70 50 11.0 21.0 0.00 0.00 0.00 41 1009.2
20260504201501 70 50 12.0 19.0 0.00 0.00 0.00 40 1009.3
20260504200502 71 50 11.0 18.0 0.00 0.00 0.00 41 1009.4
20260504200004 71 50 10.0 18.0 0.00 0.00 0.00 41 1009.4
20260504195501 70 50 10.0 17.0 0.00 0.00 0.00 43 1009.4
20260504195000 70 50 10.0 19.0 0.00 0.00 0.00 43 1009.4
20260504194507 70 50 12.0 22.0 0.00 0.00 0.00 42 1009.5
20260504194000 70 50 12.0 22.0 0.00 0.00 0.00 42 1009.6
20260504193501 70 50 11.0 19.0 0.00 0.00 0.00 43 1009.6
20260504193001 70 50 12.0 20.0 0.00 0.00 0.00 44 1009.6
20260504192501 70 50 9.0 20.0 0.00 0.00 0.00 42 1009.7
20260504192000 69 50 10.0 26.0 0.00 0.00 0.00 42 1009.7
20260504191501 70 50 11.0 26.0 0.00 0.00 0.00 42 1009.7
20260504191000 70 50 10.0 16.0 0.00 0.00 0.00 43 1009.7
20260504190003 69 50 12.0 21.0 0.00 0.00 0.00 44 1009.8
20260504185501 69 50 13.0 24.0 0.00 0.00 0.00 45 1009.9
20260504185001 70 50 11.0 24.0 0.00 0.00 0.00 42 1010.1
20260504184501 69 50 10.0 19.0 0.00 0.00 0.00 43 1010.0
20260504184000 69 50 11.0 18.0 0.00 0.00 0.00 44 1010.1
20260504183500 69 50 12.0 27.0 0.00 0.00 0.00 44 1010.2
20260504183001 69 205 10.0 27.0 0.00 0.00 0.00 43 1010.3
20260504182500 69 50 8.0 16.0 0.00 0.00 0.00 44 1010.4
20260504182001 69 50 9.0 16.0 0.00 0.00 0.00 44 1010.3
20260504181502 69 50 11.0 18.0 0.00 0.00 0.00 43 1010.4
20260504181001 69 50 11.0 18.0 0.00 0.00 0.00 44 1010.5
20260504180500 69 50 10.0 19.0 0.00 0.00 0.00 44 1010.5
20260504180002 68 50 9.0 19.0 0.00 0.00 0.00 45 1010.5
20260504175501 68 50 10.0 21.0 0.00 0.00 0.00 43 1010.6
20260504174502 68 50 7.0 15.0 0.00 0.00 0.00 45 1010.7
20260504174001 67 50 10.0 16.0 0.00 0.00 0.00 47 1010.9
20260504173500 67 50 11.0 19.0 0.00 0.00 0.00 46 1011.0
20260504172500 67 50 12.0 19.0 0.00 0.00 0.00 45 1011.2
20260504172001 66 50 12.0 21.0 0.00 0.00 0.00 47 1011.2
20260504171502 66 50 12.0 21.0 0.00 0.00 0.00 45 1011.4
20260504171001 66 50 12.0 22.0 0.00 0.00 0.00 46 1011.4
20260504170500 66 50 11.0 22.0 0.00 0.00 0.00 45 1011.6
20260504151001 62 50 10.0 22.0 0.00 0.00 0.00 46 1012.7
20260504150500 62 50 9.0 20.0 0.00 0.00 0.00 44 1012.9
20260504141000 57 50 8.0 14.0 0.00 0.00 0.00 51 1013.3
20260504130501 55 50 7.0 14.0 0.00 0.00 0.00 52 1013.6
20260504110500 46 198 5.0 8.0 0.00 0.00 0.00 65 1013.7
20260504100500 42 50 3.0 4.0 0.00 0.00 0.00 67 1013.6
20260504082000 45 50 4.0 6.0 0.00 0.00 0.00 63 1013.8
20260504081501 45 50 4.0 6.0 0.00 0.00 0.00 63 1013.8
20260504081000 45 50 4.0 8.0 0.00 0.00 0.00 62 1013.8
20260504080500 46 50 4.0 8.0 0.00 0.00 0.00 62 1013.8
20260504050502 49 242 7.0 11.0 0.00 0.00 0.00 54 1013.7
20260504050004 49 50 6.0 13.0 0.00 0.00 0.00 55 1013.6
20260504045501 49 50 6.0 13.0 0.00 0.00 0.00 54 1013.7
20260504045002 49 50 6.0 11.0 0.00 0.00 0.00 54 1013.6
20260504044501 49 50 6.0 10.0 0.00 0.00 0.00 54 1013.6
20260504044001 49 50 6.0 10.0 0.00 0.00 0.00 54 1013.6
20260504043502 49 50 6.0 10.0 0.00 0.00 0.00 54 1013.6
20260504043003 49 50 6.0 11.0 0.00 0.00 0.00 54 1013.6
20260504042501 50 50 8.0 16.0 0.00 0.00 0.00 53 1013.6
20260504042001 50 50 9.0 16.0 0.00 0.00 0.00 52 1013.6
20260504041503 50 50 8.0 11.0 0.00 0.00 0.00 53 1013.5
20260504041001 50 50 7.0 11.0 0.00 0.00 0.00 53 1013.5
20260504040501 50 50 7.0 11.0 0.00 0.00 0.00 52 1013.5
20260504040007 50 50 8.0 11.0 0.00 0.00 0.00 52 1013.4
20260504035501 50 50 8.0 15.0 0.00 0.00 0.00 52 1013.3
20260504035001 50 50 8.0 15.0 0.00 0.00 0.00 51 1013.1
20260504034503 50 50 7.0 12.0 0.00 0.00 0.00 52 1013.1
20260504034002 50 50 7.0 11.0 0.00 0.00 0.00 52 1013.1
20260504033502 50 50 7.0 11.0 0.00 0.00 0.00 52 1013.1
20260504033003 50 50 7.0 11.0 0.00 0.00 0.00 52 1013.1
20260504032501 50 50 6.0 11.0 0.00 0.00 0.00 52 1013.1
20260504032001 50 50 5.0 10.0 0.00 0.00 0.00 53 1013.1
20260504031503 50 50 5.0 10.0 0.00 0.00 0.00 52 1013.1
20260504031001 50 50 5.0 8.0 0.00 0.00 0.00 52 1013.0
20260504030501 50 50 5.0 7.0 0.00 0.00 0.00 52 1012.9
20260504025503 51 233 5.0 9.0 0.00 0.00 0.00 50 1013.0
20260504025001 52 236 6.0 10.0 0.00 0.00 0.00 49 1012.9
20260504024502 52 257 6.0 10.0 0.00 0.00 0.00 49 1012.9
20260504023002 52 252 6.0 9.0 0.00 0.00 0.00 48 1013.0
20260504022501 52 252 6.0 9.0 0.00 0.00 0.00 47 1013.0
20260504022001 52 248 6.0 9.0 0.00 0.00 0.00 47 1013.0
20260504021502 52 237 6.0 8.0 0.00 0.00 0.00 48 1013.0
20260504021001 52 255 6.0 9.0 0.00 0.00 0.00 48 1013.0
20260504020503 52 259 6.0 9.0 0.00 0.00 0.00 47 1013.0
20260504015501 53 248 6.0 10.0 0.00 0.00 0.00 47 1012.9
20260504015001 53 240 6.0 9.0 0.00 0.00 0.00 46 1013.0